Voltar ao catálogo

FENGYUN 1C DEB

AtivoSSO
NORAD 33646·DEBRIS·🇨🇳 China

Lançado May 10, 1999 de Taiyuan Satellite Launch Center

Loading…

Próximas Passagens (próximas 24 horas)

TLE

EnvelhecendoSource: Space-Track

Época: Sep 7, 2026, 13:36 UTC

1 33646U 99025DEF 26250.56704202  .00001167  00000-0  71052-3 0  9991
2 33646  98.5946 156.5966 0110206 124.5025 236.6610 14.04983309758210

Acompanhe FENGYUN 1C DEB em tempo real com AllMySat

Download on the App Store